Flag for USA

Past Weather in Fort Walton Beach, Florida, USA — Yesterday and Last 2 Weeks

Now
86 °F

Passing clouds.


Feels Like: 94 °F
Forecast: 87 / 80 °F
Wind: 8 mph from Northeast

Location: Hurlburt Field
Current Time: Aug 13, 2020 at 10:21:57 am
Latest Report: Aug 13, 2020 at 8:56 am
Visibility: 10 mi
Pressure30.02 "Hg
Humidity: 71%
Dew Point: 75 °F
Location of Fort Walton BeachLocation

Past Weather in Fort Walton Beach — Graph

°F

Fort Walton Beach Temperature Yesterday

Maximum temperature yesterday: 89 °F (at 11:56 am)
Minimum temperature yesterday: 72 °F (at 5:56 am)
Average temperature yesterday: 80 °F

High & Low Weather Summary for the Past Weeks

 TemperatureHumidityPressure
High92 °F (Aug 4, 12:56 pm)94% (Aug 2, 6:01 am)30.15 "Hg (Aug 2, 6:01 am)
Low72 °F (Aug 2, 6:01 am)47% (Aug 4, 10:56 am)29.86 "Hg (Aug 3, 4:56 pm)
Average84 °F75%30.00 "Hg
* Reported Jul 29 8:56 am — Aug 13 8:56 am, Fort Walton Beach. Weather by CustomWeather, © 2020

Note: Actual official high and low records may vary slightly from our data, if they occured in-between our weather recording intervals... More about our weather records

Fort Walton Beach Weather History for the Previous 24 Hours

Scroll right to see more
 ConditionsComfort  
Time TempWeatherWind HumidityBarometerVisibility
8:56 am
Thu, Aug 13
86 °FPassing clouds.8 mph71%30.02 "Hg10 mi
7:56 am80 °FPassing clouds.5 mph88%30.01 "Hg10 mi
6:56 am77 °FScattered clouds.No wind93%30.01 "Hg10 mi
5:56 am77 °FPassing clouds.No wind94%29.99 "Hg10 mi
4:56 am76 °FPassing clouds.6 mph94%29.98 "Hg10 mi
3:56 am76 °FPassing clouds.7 mph93%29.97 "Hg10 mi
2:56 am76 °FPassing clouds.No wind92%29.96 "Hg10 mi
1:56 am77 °FPassing clouds.5 mph91%29.96 "Hg10 mi
12:56 am79 °FPassing clouds.No wind88%29.98 "Hg10 mi
11:56 pm
Wed, Aug 12
80 °FPassing clouds.No wind84%29.99 "Hg10 mi
10:56 pm81 °FClear.No wind83%29.99 "Hg10 mi
9:56 pm81 °FPassing clouds.3 mph83%30.00 "Hg10 mi
8:56 pm83 °FPassing clouds.No wind76%29.98 "Hg10 mi
7:56 pm84 °FPassing clouds.5 mph74%29.98 "Hg10 mi
6:56 pm85 °FPassing clouds.7 mph73%29.97 "Hg10 mi
5:56 pm86 °FScattered clouds.9 mph73%29.96 "Hg10 mi
4:56 pm86 °FPassing clouds.7 mph73%29.96 "Hg10 mi
3:56 pm87 °FPassing clouds.9 mph72%29.96 "Hg10 mi
2:56 pm88 °FScattered clouds.14 mph71%29.98 "Hg10 mi
1:56 pm88 °FPassing clouds.13 mph72%30.01 "Hg10 mi
11:56 am89 °FScattered clouds.10 mph69%30.02 "Hg10 mi
10:56 am87 °FScattered clouds.6 mph69%30.03 "Hg10 mi
Weather by CustomWeather, © 2020

See weather overview